Location: Three Guys Observatory
(38.6418°N, 87.1521°W)
Time: 18:24:39
(UTC-04:00)

ISS - Visible Passes

Search period start: 25 September 2017 00:00
Search period end: 05 October 2017 00:00
Orbit: 401 x 407 km, 51.6° (Epoch: 26 September)

Date Brightness Start Highest point End Pass type
(mag) Time Alt. Az. Time Alt. Az. Time Alt. Az.
25 Sep -3.1 21:27:09 10° WSW 21:30:16 51° NW 21:30:16 51° NW visible
26 Sep -3.9 20:34:43 10° SW 20:37:59 80° SE 20:40:34 15° NE visible
26 Sep -0.5 22:12:33 10° WNW 22:13:16 13° NW 22:13:16 13° NW visible
27 Sep -1.8 21:19:27 10° W 21:22:13 25° NNW 21:23:22 20° N visible
28 Sep -2.6 20:26:37 10° WSW 20:29:43 41° NW 20:32:52 10° NE visible
28 Sep -0.5 22:05:40 10° NW 22:05:59 11° NNW 22:05:59 11° NNW visible
29 Sep -1.1 21:12:11 10° WNW 21:14:13 15° NNW 21:15:48 12° N visible
30 Sep -1.6 20:18:58 10° W 20:21:34 22° NNW 20:24:12 10° NNE visible
01 Oct -0.9 21:05:24 10° NNW 21:06:16 11° NNW 21:07:07 10° N visible
02 Oct -1.1 20:11:44 10° NW 20:13:31 14° NNW 20:15:18 10° NNE visible
04 Oct -0.9 20:05:19 10° NNW 20:05:30 10° N 20:05:42 10° N visible
